CW2840 Weather Reports


Display with metric or nautical units.
time (UTC)temp
F
wind
direction
speed
MPH
gust
MPH
rain 1hr
in
rain 24hr
in
rain mn
in
humidity
%
barometer
mb
20260502223458 74 350 4.0 7.0 0.00 0.58 0.00 45 1018.2
20260502221954 74 4 3.0 11.0 0.00 0.58 0.00 44 1018.3
20260502220455 74 0 3.0 9.0 0.00 0.59 0.00 42 1018.4
20260502214954 75 18 6.0 13.0 0.00 0.67 0.00 43 1018.3
20260502213456 75 102 3.0 18.0 0.00 0.68 0.00 44 1018.4
20260502211954 74 228 1.0 13.0 0.00 0.69 0.00 43 1018.3
20260502210454 74 52 3.0 11.0 0.00 0.70 0.00 43 1018.6
20260502205645 75 82 1.0 9.0 0.00 0.72 0.00 42 1018.7
20260502203454 75 317 5.0 14.0 0.00 0.76 0.00 41 1018.8
20260502202648 74 0 4.0 14.0 0.00 0.80 0.00 42 1019.0
20260502200454 75 125 4.0 14.0 0.00 0.83 0.00 45 1019.1
20260502194953 74 319 3.0 16.0 0.00 0.83 0.00 45 1019.2
20260502193452 74 109 5.0 14.0 0.00 0.84 0.00 45 1019.5
20260502191950 74 38 5.0 16.0 0.00 0.84 0.00 44 1019.7
20260502190453 74 0 5.0 25.0 0.00 0.86 0.00 44 1019.8
20260502184948 74 0 4.0 22.0 0.00 0.89 0.00 48 1019.9
20260502183451 73 89 6.0 20.0 0.00 0.90 0.00 45 1020.1
20260502181949 73 55 8.0 18.0 0.00 0.92 0.00 45 1020.3
20260502180452 72 0 10.0 25.0 0.00 0.93 0.00 45 1020.4
20260502170449 71 336 10.0 18.0 0.00 0.98 0.00 51 1020.8
20260502163446 70 0 6.0 14.0 0.00 1.00 0.00 57 1020.9
20260502161947 69 0 6.0 20.0 0.00 1.04 0.00 57 1020.9
20260502161151 68 0 5.0 20.0 0.00 1.09 0.00 59 1020.8
20260502151946 65 4 9.0 22.0 0.00 1.19 0.00 67 1020.7
20260502150447 64 45 3.0 18.0 0.00 1.22 0.00 71 1020.7
20260502130445 55 347 2.0 7.0 0.00 2.23 0.00 86 1019.5
20260502123444 53 0 3.0 9.0 0.00 2.53 0.00 88 1019.0
20260502121942 53 4 3.0 7.0 0.00 2.57 0.00 88 1018.8
20260502120443 52 0 2.0 7.0 0.00 2.79 0.00 88 1018.7
20260502114942 52 358 2.0 7.0 0.00 2.97 0.00 88 1018.5
20260502113443 52 0 2.0 5.0 0.00 2.99 0.00 88 1018.4
20260502111940 52 358 2.0 7.0 0.00 3.04 0.00 88 1018.3
20260502110442 52 3 3.0 7.0 0.00 3.09 0.00 88 1018.0
20260502104940 52 347 2.0 11.0 0.00 3.11 0.00 88 1017.9
20260502103440 52 337 5.0 11.0 0.00 3.16 0.00 88 1017.8
20260502101939 52 0 2.0 11.0 0.00 3.18 0.00 88 1017.7
20260502100441 52 0 3.0 11.0 0.00 3.20 0.00 88 1017.5
20260502090439 53 0 2.0 5.0 0.00 3.49 0.00 88 1016.3
20260502070435 55 0 3.0 9.0 0.00 3.78 0.00 86 1016.5
20260502064935 55 358 5.0 14.0 0.00 3.78 0.00 86 1016.2
20260502063437 55 27 5.0 13.0 0.00 3.78 0.00 87 1016.2
20260502061932 55 354 2.0 11.0 0.00 3.78 0.00 87 1016.0
20260502060435 55 7 8.0 16.0 0.00 3.80 0.00 88 1016.1
20260502054933 55 306 3.0 18.0 0.00 3.80 0.00 88 1016.0
20260502053435 55 58 6.0 18.0 0.00 3.80 0.00 88 1016.1
20260502051933 55 354 6.0 13.0 0.00 3.82 0.00 89 1016.1
20260502050434 55 1 3.0 16.0 0.00 3.86 0.00 89 1016.1
20260502044932 55 4 9.0 18.0 0.00 3.87 3.86 89 1016.1
20260502043434 56 0 4.0 16.0 0.00 3.87 3.86 89 1016.0
20260502042627 56 7 7.0 16.0 0.00 3.88 3.86 89 1015.9
20260502040432 56 1 5.0 16.0 0.00 3.88 3.86 89 1016.1
20260502034931 56 350 6.0 20.0 0.00 3.88 3.86 89 1016.0
20260502033432 56 340 9.0 16.0 0.00 3.88 3.86 89 1015.8
20260502031930 56 281 4.0 14.0 0.00 3.88 3.86 89 1015.6
20260502030431 56 343 6.0 16.0 0.02 3.88 3.86 89 1015.3
20260502024929 56 24 5.0 14.0 0.05 3.85 3.86 89 1014.6
20260502023433 56 0 6.0 22.0 0.08 3.85 3.86 89 1014.7
20260502021929 56 4 10.0 20.0 0.11 3.85 3.86 89 1014.6
20260502020430 56 0 6.0 18.0 0.12 3.85 3.84 89 1014.5
20260502014930 56 355 9.0 20.0 0.09 3.74 3.81 89 1014.2
20260502013429 56 347 10.0 25.0 0.08 3.74 3.78 89 1013.6
20260502012631 57 355 4.0 14.0 0.07 3.74 3.74 90 1014.2
20260502010430 57 319 5.0 29.0 0.07 3.74 3.72 89 1013.4
20260502005631 58 333 8.0 20.0 0.10 3.66 3.72 90 1012.5
20260502003429 58 0 3.0 11.0 0.10 3.66 3.70 90 1013.3
20260502001928 59 355 3.0 11.0 0.11 3.66 3.67 90 1013.1
20260502000427 59 0 3.0 13.0 0.26 3.66 3.65 90 1012.4
20260501234926 59 358 4.0 7.0 0.32 3.35 3.62 90 1012.5
20260501233426 59 72 2.0 7.0 0.32 3.35 3.60 90 1012.4
20260501231925 59 0 2.0 9.0 0.28 3.35 3.56 89 1012.3
20260501231138 59 16 5.0 11.0 0.12 3.35 3.38 89 1012.2
20260501224924 59 338 4.0 11.0 0.11 3.27 3.30 89 1010.7